Location: Carella
(45.8167°N, 9.2667°E)
Time: 05:25:17
(UTC+00:00)

H-2A R/B - Pass Details

Date: 30 March 2020
Orbit: 734 x 836 km, 98.2° (Epoch: 01 June)

Event Time Altitude Azimuth Distance (km) Brightness Sun altitude
Rises 18:27:15 0° 153° (SSE) 3,337 4.9 -7.4°
Reaches altitude 10° 18:29:38 10° 150° (SSE) 2,397 4.2 -7.8°
Maximum altitude 18:34:50 59° 72° (ENE) 919 2.2 -8.6°
Drops below altitude 10° 18:39:56 10° 354° (N) 2,349 4.8 -9.5°
Sets 18:42:15 0° 350° (N) 3,266 5.6 -9.9°
